Regional Weather Roundup
Issued by NWS

Home | Current Version | Previous Version | Text Only | Print | Product List | Glossary Off
Versions: 1 2 3 4 5 6 7 8 9 10 11 12 13 14 15 16 17 18 19 20 21 22 23 24 25 26 27 28 29 30 31 32 33 34 35 36 37 38 39 40 41 42 43 44 45 46 47 48 49 50

000
ASUS45 KBOI 311310
RWRID
WEATHER ROUNDUP FOR IDAHO
NATIONAL WEATHER SERVICE BOISE ID
700 AM MDT THU JUL 31 2014

NOTE: "FAIR" INDICATES FEW OR NO CLOUDS BELOW 12000 FEET
WITH NO SIGNIFICANT WEATHER AND/OR OBSTRUCTIONS TO VISIBILITY

IDZ012-014-311400-
SOUTHWEST IDAHO


CITY           SKY/WX    TMP DP  RH WIND       PRES   REMARKS
BOISE          PTCLDY    68  49  50 NE5       30.12R
CALDWELL       PTCLDY    61  46  59 S5        30.12S
MOUNTAIN HOME  MOCLDY    65  50  57 NE6       30.12S
$$

IDZ016-017-311400-
SOUTHCENTRAL IDAHO


CITY           SKY/WX    TMP DP  RH WIND       PRES   REMARKS
BURLEY         CLEAR     54  51  90 CALM      30.19R
JEROME         CLEAR     60  50  69 NE16      30.18S
TWIN FALLS     PTCLDY    59  47  64 SE6       30.18R
$$

IDZ019>023-311400-
SOUTHEAST IDAHO


CITY           SKY/WX    TMP DP  RH WIND       PRES   REMARKS
IDAHO FALLS    CLEAR     49  46  90 N3        30.27S
POCATELLO      CLEAR     54  47  77 E3        30.25R
REXBURG        CLEAR     51  47  86 CALM      30.28S
$$

IDZ006-010-011-018-031-032-311400-
CENTRAL IDAHO MOUNTAINS


CITY           SKY/WX    TMP DP  RH WIND       PRES   REMARKS
MCCALL         CLEAR     51  42  71 CALM      30.26R
HAILEY         CLEAR     54  46  76 NW13      30.31S
STANLEY          N/A     44  43  96 VRB3      30.41S
SALMON         CLEAR     52  45  76 S3        30.26S
CHALLIS        CLEAR     51  43  74 CALM      30.31S
$$

IDZ002-004-006-007-026-311400-
NORTHERN IDAHO


CITY           SKY/WX    TMP DP  RH WIND       PRES   REMARKS
LEWISTON       CLEAR     69  47  45 SE5       30.02R
LOWELL           N/A     60  53  77 N7        30.12R
COEUR D`ALENE  CLEAR     57  46  67 E9        30.05S
MULLAN PASS    CLEAR     66  33  29 NW3       30.29F
$$


USA.gov is the U.S. government's official web portal to all federal, state and local government web resources and services.